Weather History for Hickory, NC

Change the Weather History Date:

Friday, January 21, 2011

  Actual Average Record
Temperature  
Mean Temperature 33 °F -  
Max Temperature 39 °F 47 °F 67 °F (1959)
Min Temperature 26 °F 26 °F -8 °F (1985)
Degree Days  
Heating Degree Days 32    
Moisture  
Dew Point 10 °F    
Average Humidity 41    
Maximum Humidity 73    
Minimum Humidity 20    
Precipitation  
Precipitation 0.00 in - - ()
Sea Level Pressure  
Sea Level Pressure 29.84 in    
Wind  
Wind Speed 9 mph (NNW)    
Max Wind Speed 17 mph    
Max Gust Speed 25 mph    
Visibility 10 miles    
Events      
Averages and records for this station are not official NWS values.
T = Trace of Precipitation, MM = Missing Value Source: NWS Daily Summary

Daily Weather History Graph

Daily Weather History Graph

Search for Another Location

Airport:

Trip Planner

Search our weather history database for the weather conditions in past years. The results will help you decide how hot, cold, wet, or windy it might be!

Date:

Astronomy

Jan. 21, 2011 Rise Set
Actual Time 7:32 AM EST 5:41 PM EST
Civil Twilight 7:05 AM EST 6:08 PM EST
Nautical Twilight 6:34 AM EST 6:39 PM EST
Astronomical Twilight 6:03 AM EST 7:10 PM EST
Moon 8:09 PM EST (1/21) 8:30 AM EST (1/21)
Length of Visible Light 11h 03m
Length of Day
10h 08m
Waning Gibbous, 95% of the Moon is Illuminated
Jan 21
Waning Gibbous
Jan 26
Last Quarter
Feb 2
New
Feb 11
First Quarter
Feb 18
Full

Hourly Weather History & Observations

Time (EST) Temp. Windchill Dew Point Humidity Pressure Visibility Wind Dir Wind Speed Gust Speed Precip Events Conditions
12:53 AM 39.0 °F 34.0 °F 30.9 °F 73% 29.71 in 10.0 mi WNW 6.9 mph - N/A   Clear
1:53 AM 39.9 °F 31.8 °F 21.9 °F 49% 29.74 in 10.0 mi WNW 15.0 mph 24.2 mph N/A   Overcast
2:53 AM 36.0 °F 27.1 °F 21.0 °F 55% 29.76 in 10.0 mi NNW 13.8 mph 21.9 mph N/A   Clear
3:53 AM 34.0 °F 25.5 °F 19.0 °F 54% 29.78 in 10.0 mi NW 11.5 mph 20.7 mph N/A   Clear
4:53 AM 32.0 °F 23.0 °F 19.0 °F 59% 29.79 in 10.0 mi NW 11.5 mph - N/A   Clear
5:53 AM 30.9 °F 22.8 °F 12.9 °F 47% 29.81 in 10.0 mi NNW 9.2 mph - N/A   Scattered Clouds
6:53 AM 28.0 °F 24.2 °F 12.0 °F 51% 29.83 in 10.0 mi North 3.5 mph - N/A   Clear
7:53 AM 28.9 °F 22.8 °F 10.9 °F 47% 29.84 in 10.0 mi Variable 5.8 mph - N/A   Clear
8:53 AM 32.0 °F 23.6 °F 8.1 °F 37% 29.85 in 10.0 mi WNW 10.4 mph - N/A   Clear
9:53 AM 34.0 °F 23.4 °F 7.0 °F 32% 29.86 in 10.0 mi NW 17.3 mph 25.3 mph N/A   Clear
10:53 AM 35.1 °F 25.9 °F 7.0 °F 31% 29.88 in 10.0 mi WNW 13.8 mph 18.4 mph N/A   Clear
11:53 AM 37.0 °F 31.6 °F 7.0 °F 29% 29.87 in 10.0 mi NW 6.9 mph - N/A   Clear
12:53 PM 37.9 °F 29.2 °F 3.9 °F 24% 29.85 in 10.0 mi NW 15.0 mph 20.7 mph N/A   Clear
1:53 PM 39.0 °F 30.6 °F 1.0 °F 20% 29.83 in 10.0 mi WNW 15.0 mph 18.4 mph N/A   Clear
2:53 PM 39.0 °F 33.4 °F 1.9 °F 21% 29.84 in 10.0 mi North 8.1 mph - N/A   Clear
3:53 PM 37.9 °F 31.5 °F 3.0 °F 23% 29.85 in 10.0 mi North 9.2 mph - N/A   Clear
4:53 PM 35.1 °F 27.4 °F 3.0 °F 26% 29.87 in 10.0 mi North 10.4 mph - N/A   Clear
5:53 PM 32.0 °F 26.4 °F 5.0 °F 32% 29.88 in 10.0 mi North 5.8 mph - N/A   Clear
6:53 PM 30.0 °F 24.1 °F 7.0 °F 38% 29.91 in 10.0 mi NNW 5.8 mph - N/A   Clear
7:53 PM 28.0 °F 24.2 °F 7.0 °F 41% 29.91 in 10.0 mi North 3.5 mph - N/A   Clear
8:53 PM 28.0 °F 22.8 °F 8.1 °F 43% 29.90 in 10.0 mi North 4.6 mph - N/A   Clear
9:53 PM 27.0 °F - 9.0 °F 47% 29.90 in 10.0 mi Calm Calm - N/A   Clear
10:53 PM 27.0 °F - 9.0 °F 47% 29.90 in 10.0 mi Calm Calm - N/A   Clear
11:53 PM 26.1 °F - 10.0 °F 51% 29.90 in 10.0 mi Calm Calm - N/A   Clear